Wind_Speed
35 38 41 44 43 39 36 35 35 33 32 29 27 27 30 32 34 35 36 41 44 47 50 53 56 59 62 65 68 71 73 76 78 78 80 81 84 84 88 90 89 92 96 99
36 40 44 47 45 39 34 34 32 31 30 30 29 32 32 33 37 39 43 45 49 52 55 58 61 65 68 71 73 75 77 80 83 83 84 87 88 89 91 94 92 93 94 94
39 42 46 48 44 38 34 34 34 32 29 32 31 33 29 38 44 45 50 52 56 61 62 64 67 70 72 72 72 73 75 78 82 86 87 88 91 93 93 96 96 100 97 99
44 45 48 50 43 37 35 34 31 30 30 32 31 38 36 35 47 50 54 58 63 65 65 69 72 71 72 73 75 79 81 82 84 86 87 89 92 93 96 98 100 100 100 104
45 49 51 50 41 37 35 32 31 32 33 36 39 41 48 47 53 54 56 64 66 69 72 72 73 74 78 79 81 81 86 88 88 89 89 90 92 94 96 99 101 102 102 106
47 50 52 51 40 35 33 32 32 33 35 40 40 46 57 56 58 65 64 65 69 74 77 75 78 80 83 83 87 87 88 86 86 83 82 84 88 91 93 95 97 99 101 103
48 50 52 49 42 36 33 32 34 35 38 44 44 48 56 60 69 70 74 76 78 78 77 81 85 87 89 91 90 89 87 83 79 74 73 73 76 80 83 85 88 89 93 97
50 49 53 48 40 36 34 33 35 38 42 47 54 52 57 61 68 72 75 79 81 80 82 86 89 92 88 83 81 78 77 76 74 72 72 72 73 75 77 79 82 82 84 87
52 54 54 42 39 35 34 33 35 37 43 48 56 60 63 62 67 72 72 74 77 80 83 86 86 75 68 65 63 65 64 64 63 64 67 69 71 72 72 71 73 76 78 80
56 57 48 38 35 33 33 33 36 39 45 51 59 65 66 70 70 72 75 78 82 86 89 92 78 69 64 65 66 63 61 58 61 62 61 62 61 61 61 60 61 66 68 74
58 53 41 37 34 30 32 33 38 42 47 52 55 65 65 67 69 70 73 79 85 88 88 85 75 68 69 67 57 52 48 46 45 44 44 46 46 47 46 47 47 48 52 57
55 44 37 33 31 33 35 37 41 45 51 56 58 59 58 64 66 68 71 76 81 87 86 81 69 67 70 54 47 40 33 30 30 32 36 38 38 36 35 34 33 34 35 39
47 39 33 30 33 37 38 41 45 48 51 57 59 59 59 60 65 73 79 83 88 89 82 72 67 70 56 43 36 31 28 27 28 29 30 31 30 32 31 31 30 30 30 32
44 36 32 34 37 37 38 40 44 50 52 53 58 55 58 61 65 73 79 84 88 87 77 71 69 53 41 35 32 30 30 30 30 31 32 32 32 33 33 33 34 33 33 34
38 34 35 36 37 37 39 43 47 51 51 52 55 58 58 62 69 76 80 83 85 82 73 73 56 38 32 29 29 30 32 32 33 34 35 35 36 36 37 37 38 36 35 37
34 34 37 37 37 36 41 47 51 52 53 54 58 57 60 65 72 77 81 84 81 76 75 67 43 32 31 31 33 36 39 41 42 43 43 43 42 41 40 39 39 38 38 38
33 36 36 34 37 41 46 52 52 53 54 55 56 57 61 67 74 78 81 82 76 70 73 55 40 36 36 38 42 47 49 52 53 52 51 49 47 47 46 44 43 40 39 38
35 35 35 37 40 45 50 53 52 54 56 56 58 61 63 69 75 79 83 81 76 68 65 49 40 40 41 45 52 55 57 57 56 54 50 47 45 46 46 43 38 35 34 32
36 36 34 38 42 48 51 52 53 52 56 58 60 64 66 69 74 80 81 81 76 72 58 47 43 45 49 54 58 59 55 49 44 42 39 36 33 32 33 30 27 26 24 21
36 35 36 41 44 49 52 52 50 50 52 56 59 62 64 71 74 78 78 78 70 70 55 48 49 53 57 59 54 48 42 38 34 31 27 25 23 22 20 18 17 14 12 17
38 38 40 43 45 49 52 51 52 56 58 59 63 66 70 75 79 79 76 76 68 64 51 53 57 57 52 46 41 36 33 28 25 22 17 13 13 12 11 9 7 8 10 8
39 38 41 44 47 52 50 52 56 57 59 63 67 69 72 75 78 79 77 74 67 61 56 60 56 48 41 37 34 30 26 21 16 11 6 3 4 6 9 12 8 5 3 4
36 38 42 44 47 51 51 52 54 56 59 63 68 70 72 75 78 78 76 70 68 58 61 54 44 37 35 32 29 25 20 16 12 7 7 9 12 17 16 11 10 8 8 7
37 39 41 44 46 48 49 52 56 58 62 64 69 71 75 74 77 75 73 67 67 59 57 48 38 35 30 26 23 22 21 18 15 17 19 22 22 19 17 17 14 16 18 23
34 40 41 43 46 47 50 55 57 61 64 67 72 74 76 72 75 71 66 64 62 59 54 43 35 28 25 22 21 21 21 22 22 24 24 22 21 22 20 19 24 25 30 38
38 42 43 47 48 50 53 56 61 65 67 70 73 74 74 72 71 67 59 60 55 55 50 39 29 24 20 18 20 21 23 23 22 22 21 23 25 23 24 29 32 34 44 59
Wind_Direction
315 317 322 323 316 308 301 296 294 292 287 282 279 280 281 284 284 286 288 290 290 289 288 286 285 284 283 282 282 280 279 276 273 268 266 263 260 258 257 257 255 254 254 255
317 323 326 324 318 309 301 297 293 291 284 281 279 282 288 289 291 294 293 294 297 296 294 292 289 286 284 282 280 278 276 275 273 271 270 268 264 262 260 257 257 257 257 256
320 320 325 323 315 306 298 294 292 289 278 281 285 284 288 298 297 299 301 302 302 300 295 293 291 289 287 284 282 280 277 276 274 271 268 267 266 265 263 262 260 258 257 257
321 320 322 323 314 306 302 295 292 288 287 288 287 293 289 295 298 300 300 299 299 297 295 295 294 292 290 289 287 285 283 280 278 277 271 265 263 262 261 261 261 260 260 260
320 320 321 323 314 307 305 297 294 294 294 295 296 296 297 299 297 298 298 300 302 301 300 298 295 292 291 289 287 286 283 281 280 276 271 268 264 261 260 259 258 258 257 258
317 319 320 320 312 304 300 295 293 291 290 292 294 295 298 303 299 300 303 304 304 303 300 298 298 297 295 292 289 288 285 282 279 277 273 270 268 266 265 263 260 259 258 256
315 317 319 315 309 301 297 294 293 289 287 289 294 294 296 301 303 306 307 307 305 303 302 303 301 298 297 295 293 290 287 284 281 277 272 268 266 265 263 261 260 260 258 256
315 318 318 312 306 301 297 294 291 290 290 293 296 296 296 303 304 305 306 304 303 305 304 302 301 300 298 293 290 289 285 283 280 278 276 272 267 264 261 260 259 257 256 255
314 318 317 309 304 301 298 297 295 293 292 293 296 298 299 301 301 302 303 302 302 302 301 303 307 303 300 299 292 286 281 277 276 275 274 274 273 271 267 263 258 256 256 258
314 316 315 309 305 302 302 301 300 299 297 298 299 300 304 304 306 308 309 308 309 309 309 311 312 313 310 307 301 290 282 274 273 275 278 279 279 279 276 272 267 260 256 254
314 316 313 309 306 306 308 307 306 303 303 302 302 302 307 306 306 308 309 309 311 310 311 315 316 318 315 312 305 296 287 282 277 279 281 282 282 282 281 277 271 266 261 258
313 312 308 306 306 307 308 307 305 304 303 302 304 302 306 308 308 306 305 312 313 317 320 318 319 319 317 312 308 304 297 292 287 286 284 284 284 283 284 284 282 278 272 266
309 306 303 305 310 310 308 306 306 312 313 311 309 308 310 309 312 315 318 320 321 322 320 320 322 318 313 307 304 304 302 298 294 290 289 290 290 291 290 287 282 278 275 273
307 301 300 308 311 310 310 312 315 318 315 312 311 313 312 313 315 318 321 322 325 323 322 322 321 315 305 305 306 305 300 296 293 291 289 288 286 286 287 287 286 286 285 283
303 299 305 311 312 314 314 318 317 318 316 314 315 316 317 317 320 322 324 325 325 325 323 326 320 311 303 305 303 298 298 298 294 289 285 282 278 277 276 276 278 281 282 282
299 301 307 315 316 317 317 316 319 319 319 318 320 320 320 322 324 326 327 328 327 327 326 325 319 311 306 304 302 299 297 297 295 293 289 285 282 278 276 275 275 277 278 282
298 302 310 318 321 323 321 319 319 320 320 320 321 322 324 324 326 328 330 328 329 328 327 320 317 314 313 310 306 305 303 299 293 288 284 280 277 275 273 272 273 275 278 281
298 305 310 316 321 321 323 320 318 321 322 322 326 326 327 327 329 328 330 330 330 329 326 315 316 312 308 307 308 306 301 297 293 289 283 278 272 269 269 270 270 271 272 280
301 304 309 316 319 320 322 320 322 324 325 325 327 327 328 326 328 330 332 331 331 329 325 314 314 313 313 312 311 308 305 302 298 293 289 285 279 271 266 266 263 262 268 280
300 304 309 313 317 319 322 322 324 325 326 325 325 327 325 329 332 331 333 331 330 331 327 322 320 318 317 315 312 313 310 306 302 298 293 285 273 265 261 253 249 254 261 272
301 300 306 311 317 319 321 321 324 325 326 327 327 328 328 330 332 333 333 331 331 331 329 325 322 320 318 317 319 321 319 313 307 303 302 284 268 258 242 220 207 218 254 268
299 303 306 309 316 314 318 320 323 325 326 327 328 328 330 330 333 335 330 332 331 334 332 330 327 326 326 330 332 332 333 331 327 324 319 275 230 196 158 152 176 197 198 225
297 298 301 309 308 310 315 319 322 325 327 327 328 329 332 331 334 334 331 333 334 339 337 336 335 335 338 340 343 347 353 3 11 35 83 106 123 131 136 140 132 129 137 142
298 298 301 301 306 310 313 318 321 325 327 327 330 329 331 333 335 333 333 333 338 341 343 343 344 345 347 356 4 21 28 36 54 81 98 114 126 124 123 119 117 127 130 118
301 300 302 303 305 309 312 316 320 324 327 328 330 330 332 335 335 331 335 334 341 342 348 348 352 354 4 18 39 52 59 67 81 97 107 113 114 119 116 121 123 123 122 116
300 300 302 303 305 307 311 315 318 322 325 328 330 331 333 335 334 330 336 336 340 342 348 352 359 1 18 48 67 77 81 85 90 98 106 114 115 116 120 121 123 122 124 123
Height
10852 10848 10843 10838 10832 10827 10821 10817 10814 10813 10809 10808 10806 10805 10803 10801 10798 10795 10793 10789 10786 10783 10778 10773 10769 10763 10758 10754 10749 10744 10740 10736 10734 10732 10730 10732 10728 10731 10728 10729 10734 10735 10739 10742
10845 10840 10833 10828 10822 10817 10813 10809 10806 10806 10802 10800 10800 10796 10795 10793 10789 10786 10782 10778 10772 10768 10764 10758 10753 10748 10742 10736 10731 10726 10721 10717 10713 10710 10708 10706 10706 10705 10706 10706 10712 10713 10715 10715
10839 10832 10826 10820 10813 10809 10806 10802 10799 10798 10797 10792 10791 10788 10790 10783 10777 10774 10768 10764 10759 10752 10745 10740 10735 10728 10721 10716 10711 10706 10701 10694 10690 10684 10683 10682 10680 10678 10681 10681 10686 10680 10690 10688
10830 10824 10819 10813 10806 10801 10798 10794 10792 10789 10787 10785 10784 10778 10778 10779 10768 10764 10758 10752 10745 10737 10730 10723 10713 10707 10700 10693 10688 10680 10674 10669 10664 10658 10655 10655 10653 10654 10653 10653 10655 10658 10661 10659
10824 10817 10810 10805 10799 10793 10790 10787 10784 10782 10778 10775 10772 10769 10761 10764 10757 10755 10751 10738 10729 10719 10710 10703 10693 10687 10678 10673 10664 10659 10650 10641 10636 10630 10625 10624 10624 10625 10624 10624 10625 10629 10633 10632
10817 10810 10802 10796 10792 10788 10784 10781 10778 10776 10772 10768 10766 10759 10746 10747 10745 10733 10731 10725 10716 10703 10691 10684 10674 10664 10654 10645 10634 10629 10618 10614 10608 10603 10600 10597 10595 10596 10597 10597 10596 10599 10602 10604
10811 10804 10797 10789 10783 10780 10777 10774 10771 10769 10765 10759 10758 10752 10742 10736 10722 10716 10707 10699 10692 10684 10675 10663 10650 10639 10627 10616 10606 10595 10587 10581 10576 10574 10573 10571 10569 10568 10567 10566 10566 10570 10572 10572
10802 10801 10789 10780 10776 10773 10769 10767 10764 10760 10756 10750 10740 10742 10734 10728 10715 10705 10697 10686 10673 10663 10653 10641 10629 10616 10603 10589 10578 10570 10562 10556 10551 10549 10545 10543 10542 10541 10541 10540 10540 10543 10543 10543
10794 10791 10781 10776 10769 10765 10762 10760 10756 10754 10748 10743 10732 10725 10717 10718 10706 10696 10687 10673 10661 10650 10636 10622 10609 10591 10581 10568 10556 10546 10539 10532 10528 10524 10520 10519 10518 10516 10517 10517 10518 10518 10520 10521
10786 10778 10772 10768 10763 10759 10755 10752 10748 10745 10740 10733 10722 10710 10703 10694 10688 10677 10663 10650 10637 10625 10610 10595 10580 10567 10556 10544 10533 10521 10512 10510 10507 10504 10503 10499 10495 10492 10491 10491 10493 10495 10498 10500
10775 10768 10765 10760 10755 10752 10748 10745 10740 10734 10728 10721 10717 10699 10694 10684 10675 10664 10652 10637 10624 10607 10593 10574 10559 10546 10532 10520 10509 10500 10493 10490 10489 10488 10486 10483 10482 10478 10474 10473 10474 10476 10477 10478
10767 10761 10757 10753 10748 10744 10741 10736 10731 10725 10718 10710 10704 10695 10688 10673 10661 10652 10643 10630 10610 10590 10569 10554 10542 10530 10516 10506 10496 10489 10483 10480 10477 10477 10475 10473 10471 10468 10466 10463 10461 10461 10461 10462
10759 10755 10750 10747 10742 10738 10733 10728 10721 10715 10707 10697 10688 10680 10671 10662 10648 10633 10620 10603 10585 10568 10552 10539 10526 10514 10503 10495 10488 10481 10477 10474 10471 10469 10467 10464 10462 10457 10456 10454 10454 10453 10452 10451
10752 10748 10744 10740 10736 10732 10726 10719 10712 10706 10698 10689 10675 10670 10658 10648 10636 10622 10606 10587 10569 10551 10536 10524 10512 10500 10491 10485 10478 10473 10470 10468 10464 10461 10458 10456 10453 10450 10448 10446 10445 10443 10443 10441
10745 10741 10738 10733 10728 10723 10716 10710 10704 10696 10687 10678 10669 10657 10647 10635 10623 10607 10590 10575 10558 10538 10522 10509 10497 10488 10482 10476 10470 10467 10462 10459 10455 10452 10449 10447 10444 10441 10439 10437 10435 10434 10433 10432
10739 10735 10731 10726 10721 10716 10708 10702 10694 10686 10677 10667 10657 10647 10634 10622 10608 10592 10576 10561 10545 10527 10510 10497 10487 10480 10473 10467 10461 10456 10452 10448 10443 10438 10435 10432 10430 10427 10426 10425 10424 10424 10423 10422
10732 10728 10724 10719 10714 10708 10702 10692 10685 10676 10667 10659 10649 10637 10625 10611 10595 10579 10566 10549 10534 10518 10501 10487 10478 10471 10464 10457 10451 10444 10438 10431 10425 10420 10416 10413 10412 10410 10409 10411 10411 10413 10412 10410
10724 10720 10716 10712 10707 10700 10693 10684 10676 10667 10658 10647 10637 10626 10614 10601 10585 10569 10553 10537 10522 10508 10493 10479 10471 10463 10456 10448 10439 10430 10420 10412 10405 10398 10395 10394 10395 10394 10395 10397 10400 10401 10401 10401
10716 10712 10709 10705 10699 10692 10686 10677 10667 10661 10647 10636 10627 10616 10605 10594 10581 10560 10542 10524 10510 10498 10485 10473 10465 10455 10445 10435 10423 10412 10401 10393 10386 10381 10378 10377 10379 10381 10383 10387 10390 10392 10394 10394
10708 10705 10701 10697 10693 10685 10676 10667 10661 10654 10648 10634 10624 10614 10600 10585 10572 10553 10535 10518 10503 10489 10474 10466 10455 10444 10432 10420 10407 10397 10388 10380 10374 10369 10368 10367 10368 10370 10374 10378 10382 10386 10387 10387
10700 10697 10693 10688 10685 10677 10669 10662 10654 10645 10636 10626 10615 10603 10588 10572 10557 10542 10526 10510 10496 10480 10469 10456 10444 10431 10419 10408 10398 10388 10379 10371 10366 10363 10361 10362 10363 10366 10369 10374 10378 10381 10383 10384
10692 10689 10684 10679 10676 10669 10661 10655 10645 10637 10626 10616 10603 10592 10579 10564 10549 10531 10515 10503 10488 10474 10460 10445 10430 10419 10409 10400 10391 10382 10374 10367 10363 10360 10359 10359 10361 10364 10369 10374 10378 10381 10383 10383
10684 10680 10676 10673 10667 10660 10653 10645 10639 10630 10619 10608 10597 10584 10571 10555 10541 10524 10508 10494 10481 10466 10451 10437 10424 10414 10405 10396 10388 10380 10373 10368 10364 10361 10360 10361 10364 10369 10373 10377 10381 10383 10385 10386
10674 10671 10668 10663 10658 10651 10645 10638 10629 10620 10610 10599 10588 10575 10563 10547 10532 10515 10501 10487 10474 10460 10446 10433 10422 10413 10405 10397 10390 10382 10377 10372 10369 10367 10366 10367 10370 10375 10378 10382 10385 10387 10389 10391
10668 10661 10659 10654 10648 10643 10636 10628 10620 10611 10601 10591 10579 10566 10554 10540 10525 10509 10497 10482 10470 10457 10446 10433 10424 10415 10408 10401 10395 10390 10386 10383 10380 10378 10377 10378 10380 10383 10385 10388 10390 10394 10397 10398
10658 10653 10650 10644 10639 10634 10628 10621 10613 10603 10593 10583 10571 10559 10544 10533 10519 10504 10493 10480 10468 10456 10446 10437 10428 10420 10413 10407 10404 10400 10397 10395 10393 10391 10389 10388 10389 10391 10394 10396 10399 10403 10408 10408